Year,Month,Day,Hour,Minute,Value (Times are PST for barometer in hPa)
2016,10,14,00,00,984.73
2016,10,14,00,01,984.73
2016,10,14,00,02,984.73
2016,10,14,00,03,984.73
2016,10,14,00,04,984.73
2016,10,14,00,05,984.73
2016,10,14,00,06,984.73
2016,10,14,00,07,984.73
2016,10,14,00,08,984.73
2016,10,14,00,09,984.73
2016,10,14,00,10,984.73
2016,10,14,00,11,984.73
2016,10,14,00,12,984.73
2016,10,14,00,13,984.73
2016,10,14,00,14,984.73
2016,10,14,00,15,985.30
2016,10,14,00,16,985.30
2016,10,14,00,17,985.30
2016,10,14,00,18,985.30
2016,10,14,00,19,985.30
2016,10,14,00,20,985.30
2016,10,14,00,21,985.30
2016,10,14,00,22,985.30
2016,10,14,00,23,985.30
2016,10,14,00,24,985.30
2016,10,14,00,25,985.30
2016,10,14,00,26,985.30
2016,10,14,00,27,985.30
2016,10,14,00,28,985.30
2016,10,14,00,29,985.30
2016,10,14,00,30,985.64
2016,10,14,00,31,985.64
2016,10,14,00,32,985.64
2016,10,14,00,33,985.64
2016,10,14,00,34,985.64
2016,10,14,00,35,985.64
2016,10,14,00,36,985.64
2016,10,14,00,37,985.64
2016,10,14,00,38,985.64
2016,10,14,00,39,985.64
2016,10,14,00,40,985.64
2016,10,14,00,41,985.64
2016,10,14,00,42,985.64
2016,10,14,00,43,985.64
2016,10,14,00,44,985.64
2016,10,14,00,45,985.95
2016,10,14,00,46,985.95
2016,10,14,00,47,985.95
2016,10,14,00,48,985.95
2016,10,14,00,49,985.95
2016,10,14,00,50,985.95
2016,10,14,00,51,985.95
2016,10,14,00,52,985.95
2016,10,14,00,53,985.95
2016,10,14,00,54,985.95
2016,10,14,00,55,985.95
2016,10,14,00,56,985.95
2016,10,14,00,57,985.95
2016,10,14,00,58,985.95
2016,10,14,00,59,985.94
2016,10,14,01,00,985.81
2016,10,14,01,01,985.81
2016,10,14,01,02,985.81
2016,10,14,01,03,985.81
2016,10,14,01,04,985.81
2016,10,14,01,05,985.81
2016,10,14,01,06,985.81
2016,10,14,01,07,985.81
2016,10,14,01,08,985.81
2016,10,14,01,09,985.81
2016,10,14,01,10,985.81
2016,10,14,01,11,985.81
2016,10,14,01,12,985.81
2016,10,14,01,13,985.81
2016,10,14,01,14,985.82
2016,10,14,01,15,986.08
2016,10,14,01,16,986.08
2016,10,14,01,17,986.08
2016,10,14,01,18,986.08
2016,10,14,01,19,986.08
2016,10,14,01,20,986.08
2016,10,14,01,21,986.08
2016,10,14,01,22,986.08
2016,10,14,01,23,986.08
2016,10,14,01,24,986.08
2016,10,14,01,25,986.08
2016,10,14,01,26,986.08
2016,10,14,01,27,986.08
2016,10,14,01,28,986.08
2016,10,14,01,29,986.08
2016,10,14,01,30,986.05
2016,10,14,01,31,986.05
2016,10,14,01,32,986.05
2016,10,14,01,33,986.05
2016,10,14,01,34,986.05
2016,10,14,01,35,986.05
2016,10,14,01,36,986.05
2016,10,14,01,37,986.05
2016,10,14,01,38,986.05
2016,10,14,01,39,986.05
2016,10,14,01,40,986.05
2016,10,14,01,41,986.05
2016,10,14,01,42,986.05
2016,10,14,01,43,986.05
2016,10,14,01,44,986.08
2016,10,14,01,45,986.56
2016,10,14,01,46,986.56
2016,10,14,01,47,986.56
2016,10,14,01,48,986.56
2016,10,14,01,49,986.56
2016,10,14,01,50,986.56
2016,10,14,01,51,986.56
2016,10,14,01,52,986.56
2016,10,14,01,53,986.56
2016,10,14,01,54,986.56
2016,10,14,01,55,986.56
2016,10,14,01,56,986.56
2016,10,14,01,57,986.56
2016,10,14,01,58,986.56
2016,10,14,01,59,986.60
2016,10,14,02,00,987.30
2016,10,14,02,01,987.30
2016,10,14,02,02,987.30
2016,10,14,02,03,987.30
2016,10,14,02,04,987.30
2016,10,14,02,05,987.30
2016,10,14,02,06,987.30
2016,10,14,02,07,987.30
2016,10,14,02,08,987.30
2016,10,14,02,09,987.30
2016,10,14,02,10,987.30
2016,10,14,02,11,987.30
2016,10,14,02,12,987.30
2016,10,14,02,13,987.30
2016,10,14,02,14,987.30
2016,10,14,02,15,987.40
2016,10,14,02,16,987.40
2016,10,14,02,17,987.40
2016,10,14,02,18,987.40
2016,10,14,02,19,987.40
2016,10,14,02,20,987.40
2016,10,14,02,21,987.40
2016,10,14,02,22,987.40
2016,10,14,02,23,987.40
2016,10,14,02,24,987.40
2016,10,14,02,25,987.40
2016,10,14,02,26,987.40
2016,10,14,02,27,987.40
2016,10,14,02,28,987.40
2016,10,14,02,29,987.41
2016,10,14,02,30,987.51
2016,10,14,02,31,987.51
2016,10,14,02,32,987.51
2016,10,14,02,33,987.51
2016,10,14,02,34,987.51
2016,10,14,02,35,987.51
2016,10,14,02,36,987.51
2016,10,14,02,37,987.51
2016,10,14,02,38,987.51
2016,10,14,02,39,987.51
2016,10,14,02,40,987.51
2016,10,14,02,41,987.51
2016,10,14,02,42,987.51
2016,10,14,02,43,987.51
2016,10,14,02,44,987.51
2016,10,14,02,45,987.40
2016,10,14,02,46,987.40
2016,10,14,02,47,987.40
2016,10,14,02,48,987.40
2016,10,14,02,49,987.40
2016,10,14,02,50,987.40
2016,10,14,02,51,987.40
2016,10,14,02,52,987.40
2016,10,14,02,53,987.40
2016,10,14,02,54,987.40
2016,10,14,02,55,987.40
2016,10,14,02,56,987.40
2016,10,14,02,57,987.40
2016,10,14,02,58,987.40
2016,10,14,02,59,987.40
2016,10,14,03,00,987.67
2016,10,14,03,01,987.67
2016,10,14,03,02,987.67
2016,10,14,03,03,987.67
2016,10,14,03,04,987.67
2016,10,14,03,05,987.67
2016,10,14,03,06,987.67
2016,10,14,03,07,987.67
2016,10,14,03,08,987.67
2016,10,14,03,09,987.67
2016,10,14,03,10,987.67
2016,10,14,03,11,987.67
2016,10,14,03,12,987.67
2016,10,14,03,13,987.67
2016,10,14,03,14,987.67
2016,10,14,03,15,987.64
2016,10,14,03,16,987.64
2016,10,14,03,17,987.64
2016,10,14,03,18,987.64
2016,10,14,03,19,987.64
2016,10,14,03,20,987.64
2016,10,14,03,21,987.64
2016,10,14,03,22,987.64
2016,10,14,03,23,987.64
2016,10,14,03,24,987.64
2016,10,14,03,25,987.64
2016,10,14,03,26,987.64
2016,10,14,03,27,987.64
2016,10,14,03,28,987.64
2016,10,14,03,29,987.64
2016,10,14,03,30,987.91
2016,10,14,03,31,987.91
2016,10,14,03,32,987.91
2016,10,14,03,33,987.91
2016,10,14,03,34,987.91
2016,10,14,03,35,987.91
2016,10,14,03,36,987.91
2016,10,14,03,37,987.91
2016,10,14,03,38,987.91
2016,10,14,03,39,987.91
2016,10,14,03,40,987.91
2016,10,14,03,41,987.91
2016,10,14,03,42,987.91
2016,10,14,03,43,987.91
2016,10,14,03,44,987.91
2016,10,14,03,45,988.76
2016,10,14,03,46,988.76
2016,10,14,03,47,988.76
2016,10,14,03,48,988.76
2016,10,14,03,49,988.76
2016,10,14,03,50,988.76
2016,10,14,03,51,988.76
2016,10,14,03,52,988.76
2016,10,14,03,53,988.76
2016,10,14,03,54,988.76
2016,10,14,03,55,988.76
2016,10,14,03,56,988.76
2016,10,14,03,57,988.76
2016,10,14,03,58,988.76
2016,10,14,03,59,988.76
2016,10,14,04,00,988.28
2016,10,14,04,01,988.28
2016,10,14,04,02,988.28
2016,10,14,04,03,988.28
2016,10,14,04,04,988.28
2016,10,14,04,05,988.28
2016,10,14,04,06,988.28
2016,10,14,04,07,988.28
2016,10,14,04,08,988.28
2016,10,14,04,09,988.28
2016,10,14,04,10,988.28
2016,10,14,04,11,988.28
2016,10,14,04,12,988.28
2016,10,14,04,13,988.28
2016,10,14,04,14,988.28
2016,10,14,04,15,988.42
2016,10,14,04,16,988.42
2016,10,14,04,17,988.42
2016,10,14,04,18,988.42
2016,10,14,04,19,988.42
2016,10,14,04,20,988.42
2016,10,14,04,21,988.42
2016,10,14,04,22,988.42
2016,10,14,04,23,988.42
2016,10,14,04,24,988.42
2016,10,14,04,25,988.42
2016,10,14,04,26,988.42
2016,10,14,04,27,988.42
2016,10,14,04,28,988.42
2016,10,14,04,29,988.42
2016,10,14,04,30,988.55
2016,10,14,04,31,988.55
2016,10,14,04,32,988.55
2016,10,14,04,33,988.55
2016,10,14,04,34,988.55
2016,10,14,04,35,988.55
2016,10,14,04,36,988.55
2016,10,14,04,37,988.55
2016,10,14,04,38,988.55
2016,10,14,04,39,988.55
2016,10,14,04,40,988.55
2016,10,14,04,41,988.55
2016,10,14,04,42,988.55
2016,10,14,04,43,988.55
2016,10,14,04,44,988.55
2016,10,14,04,45,988.52
2016,10,14,04,46,988.52
2016,10,14,04,47,988.52
2016,10,14,04,48,988.52
2016,10,14,04,49,988.52
2016,10,14,04,50,988.52
2016,10,14,04,51,988.52
2016,10,14,04,52,988.52
2016,10,14,04,53,988.52
2016,10,14,04,54,988.52
2016,10,14,04,55,988.52
2016,10,14,04,56,988.52
2016,10,14,04,57,988.52
2016,10,14,04,58,988.52
2016,10,14,04,59,988.52
2016,10,14,05,00,988.35
2016,10,14,05,01,988.35
2016,10,14,05,02,988.35
2016,10,14,05,03,988.35
2016,10,14,05,04,988.35
2016,10,14,05,05,988.35
2016,10,14,05,06,988.35
2016,10,14,05,07,988.35
2016,10,14,05,08,988.35
2016,10,14,05,09,988.35
2016,10,14,05,10,988.35
2016,10,14,05,11,988.35
2016,10,14,05,12,988.35
2016,10,14,05,13,988.35
2016,10,14,05,14,988.35
2016,10,14,05,15,988.35
2016,10,14,05,16,988.35
2016,10,14,05,17,988.35
2016,10,14,05,18,988.35
2016,10,14,05,19,988.35
2016,10,14,05,20,988.35
2016,10,14,05,21,988.35
2016,10,14,05,22,988.35
2016,10,14,05,23,988.35
2016,10,14,05,24,988.35
2016,10,14,05,25,988.35
2016,10,14,05,26,988.35
2016,10,14,05,27,988.35
2016,10,14,05,28,988.35
2016,10,14,05,29,988.35
2016,10,14,05,30,988.05
2016,10,14,05,31,988.05
2016,10,14,05,32,988.05
2016,10,14,05,33,988.05
2016,10,14,05,34,988.05
2016,10,14,05,35,988.05
2016,10,14,05,36,988.05
2016,10,14,05,37,988.05
2016,10,14,05,38,988.05
2016,10,14,05,39,988.05
2016,10,14,05,40,988.05
2016,10,14,05,41,988.05
2016,10,14,05,42,988.05
2016,10,14,05,43,988.05
2016,10,14,05,44,988.05
2016,10,14,05,45,987.95
2016,10,14,05,46,987.95
2016,10,14,05,47,987.95
2016,10,14,05,48,987.95
2016,10,14,05,49,987.95
2016,10,14,05,50,987.95
2016,10,14,05,51,987.95
2016,10,14,05,52,987.95
2016,10,14,05,53,987.95
2016,10,14,05,54,987.95
2016,10,14,05,55,987.95
2016,10,14,05,56,987.95
2016,10,14,05,57,987.95
2016,10,14,05,58,987.95
2016,10,14,05,59,987.97
2016,10,14,06,00,988.32
2016,10,14,06,01,988.32
2016,10,14,06,02,988.32
2016,10,14,06,03,988.32
2016,10,14,06,04,988.32
2016,10,14,06,05,988.32
2016,10,14,06,06,988.32
2016,10,14,06,07,988.32
2016,10,14,06,08,988.32
2016,10,14,06,09,988.32
2016,10,14,06,10,988.32
2016,10,14,06,11,988.32
2016,10,14,06,12,988.32
2016,10,14,06,13,988.32
2016,10,14,06,14,988.32
2016,10,14,06,15,988.42
2016,10,14,06,16,988.42
2016,10,14,06,17,988.42
2016,10,14,06,18,988.42
2016,10,14,06,19,988.42
2016,10,14,06,20,988.42
2016,10,14,06,21,988.42
2016,10,14,06,22,988.42
2016,10,14,06,23,988.42
2016,10,14,06,24,988.42
2016,10,14,06,25,988.42
2016,10,14,06,26,988.42
2016,10,14,06,27,988.42
2016,10,14,06,28,988.42
2016,10,14,06,29,988.42
2016,10,14,06,30,988.22
2016,10,14,06,31,988.22
2016,10,14,06,32,988.22
2016,10,14,06,33,988.22
2016,10,14,06,34,988.22
2016,10,14,06,35,988.22
2016,10,14,06,36,988.22
2016,10,14,06,37,988.22
2016,10,14,06,38,988.22
2016,10,14,06,39,988.22
2016,10,14,06,40,988.22
2016,10,14,06,41,988.22
2016,10,14,06,42,988.22
2016,10,14,06,43,988.22
2016,10,14,06,44,988.22
2016,10,14,06,45,988.28
2016,10,14,06,46,988.28
2016,10,14,06,47,988.28
2016,10,14,06,48,988.28
2016,10,14,06,49,988.28
2016,10,14,06,50,988.28
2016,10,14,06,51,988.28
2016,10,14,06,52,988.28
2016,10,14,06,53,988.28
2016,10,14,06,54,988.28
2016,10,14,06,55,988.28
2016,10,14,06,56,988.28
2016,10,14,06,57,988.28
2016,10,14,06,58,988.28
2016,10,14,06,59,988.24
2016,10,14,07,00,987.44
2016,10,14,07,01,987.44
2016,10,14,07,02,987.44
2016,10,14,07,03,987.44
2016,10,14,07,04,987.44
2016,10,14,07,05,987.44
2016,10,14,07,06,987.44
2016,10,14,07,07,987.44
2016,10,14,07,08,987.44
2016,10,14,07,09,987.44
2016,10,14,07,10,987.44
2016,10,14,07,11,987.44
2016,10,14,07,12,987.44
2016,10,14,07,13,987.44
2016,10,14,07,14,987.44
2016,10,14,07,15,987.95
2016,10,14,07,16,987.95
2016,10,14,07,17,987.95
2016,10,14,07,18,987.95
2016,10,14,07,19,987.95
2016,10,14,07,20,987.95
2016,10,14,07,21,987.95
2016,10,14,07,22,987.95
2016,10,14,07,23,987.95
2016,10,14,07,24,987.95
2016,10,14,07,25,987.95
2016,10,14,07,26,987.95
2016,10,14,07,27,987.95
2016,10,14,07,28,987.95
2016,10,14,07,29,987.94
2016,10,14,07,30,987.81
2016,10,14,07,31,987.81
2016,10,14,07,32,987.81
2016,10,14,07,33,987.81
2016,10,14,07,34,987.81
2016,10,14,07,35,987.81
2016,10,14,07,36,987.81
2016,10,14,07,37,987.81
2016,10,14,07,38,987.81
2016,10,14,07,39,987.81
2016,10,14,07,40,987.81
2016,10,14,07,41,987.81
2016,10,14,07,42,987.81
2016,10,14,07,43,987.81
2016,10,14,07,44,987.81
2016,10,14,07,45,988.05
2016,10,14,07,46,988.05
2016,10,14,07,47,988.05
2016,10,14,07,48,988.05
2016,10,14,07,49,988.05
2016,10,14,07,50,988.05
2016,10,14,07,51,988.05
2016,10,14,07,52,988.05
2016,10,14,07,53,988.05
2016,10,14,07,54,988.05
2016,10,14,07,55,988.05
2016,10,14,07,56,988.05
2016,10,14,07,57,988.05
2016,10,14,07,58,988.05
2016,10,14,07,59,988.05
2016,10,14,08,00,988.62
2016,10,14,08,01,988.62
2016,10,14,08,02,988.62
2016,10,14,08,03,988.62
2016,10,14,08,04,988.62
2016,10,14,08,05,988.62
2016,10,14,08,06,988.62
2016,10,14,08,07,988.62
2016,10,14,08,08,988.62
2016,10,14,08,09,988.62
2016,10,14,08,10,988.62
2016,10,14,08,11,988.62
2016,10,14,08,12,988.62
2016,10,14,08,13,988.62
2016,10,14,08,14,988.62
2016,10,14,08,15,987.84
2016,10,14,08,16,987.84
2016,10,14,08,17,987.84
2016,10,14,08,18,987.84
2016,10,14,08,19,987.84
2016,10,14,08,20,987.84
2016,10,14,08,21,987.84
2016,10,14,08,22,987.84
2016,10,14,08,23,987.84
2016,10,14,08,24,987.84
2016,10,14,08,25,987.84
2016,10,14,08,26,987.84
2016,10,14,08,27,987.84
2016,10,14,08,28,987.84
2016,10,14,08,29,987.84
2016,10,14,08,30,988.05
2016,10,14,08,31,988.05
2016,10,14,08,32,988.05
2016,10,14,08,33,988.05
2016,10,14,08,34,988.05
2016,10,14,08,35,988.05
2016,10,14,08,36,988.05
2016,10,14,08,37,988.05
2016,10,14,08,38,988.05
2016,10,14,08,39,988.05
2016,10,14,08,40,988.05
2016,10,14,08,41,988.05
2016,10,14,08,42,988.05
2016,10,14,08,43,988.05
2016,10,14,08,44,988.05
2016,10,14,08,45,988.11
2016,10,14,08,46,988.11
2016,10,14,08,47,988.11
2016,10,14,08,48,988.11
2016,10,14,08,49,988.11
2016,10,14,08,50,988.11
2016,10,14,08,51,988.11
2016,10,14,08,52,988.11
2016,10,14,08,53,988.11
2016,10,14,08,54,988.11
2016,10,14,08,55,988.11
2016,10,14,08,56,988.11
2016,10,14,08,57,988.11
2016,10,14,08,58,988.11
2016,10,14,08,59,988.11
2016,10,14,09,00,987.61
2016,10,14,09,01,987.61
2016,10,14,09,02,987.61
2016,10,14,09,03,987.61
2016,10,14,09,04,987.61
2016,10,14,09,05,987.61
2016,10,14,09,06,987.61
2016,10,14,09,07,987.61
2016,10,14,09,08,987.61
2016,10,14,09,09,987.61
2016,10,14,09,10,987.61
2016,10,14,09,11,987.61
2016,10,14,09,12,987.61
2016,10,14,09,13,987.61
2016,10,14,09,14,987.61
2016,10,14,09,15,987.74
2016,10,14,09,16,987.74
2016,10,14,09,17,987.74
2016,10,14,09,18,987.74
2016,10,14,09,19,987.74
2016,10,14,09,20,987.74
2016,10,14,09,21,987.74
2016,10,14,09,22,987.74
2016,10,14,09,23,987.74
2016,10,14,09,24,987.74
2016,10,14,09,25,987.74
2016,10,14,09,26,987.74
2016,10,14,09,27,987.74
2016,10,14,09,28,987.74
2016,10,14,09,29,987.74
2016,10,14,09,30,987.51
2016,10,14,09,31,987.51
2016,10,14,09,32,987.51
2016,10,14,09,33,987.51
2016,10,14,09,34,987.51
2016,10,14,09,35,987.51
2016,10,14,09,36,987.51
2016,10,14,09,37,987.51
2016,10,14,09,38,987.51
2016,10,14,09,39,987.51
2016,10,14,09,40,987.51
2016,10,14,09,41,987.51
2016,10,14,09,42,987.51
2016,10,14,09,43,987.51
2016,10,14,09,44,987.51
2016,10,14,09,45,987.71
2016,10,14,09,46,987.71
2016,10,14,09,47,987.71
2016,10,14,09,48,987.71
2016,10,14,09,49,987.71
2016,10,14,09,50,987.71
2016,10,14,09,51,987.71
2016,10,14,09,52,987.71
2016,10,14,09,53,987.71
2016,10,14,09,54,987.71
2016,10,14,09,55,987.71
2016,10,14,09,56,987.71
2016,10,14,09,57,987.71
2016,10,14,09,58,987.71
2016,10,14,09,59,987.71
2016,10,14,10,00,987.64
2016,10,14,10,01,987.64
2016,10,14,10,02,987.64
2016,10,14,10,03,987.64
2016,10,14,10,04,987.64
2016,10,14,10,05,987.64
2016,10,14,10,06,987.64
2016,10,14,10,07,987.64
2016,10,14,10,08,987.64
2016,10,14,10,09,987.64
2016,10,14,10,10,987.64
2016,10,14,10,11,987.64
2016,10,14,10,12,987.64
2016,10,14,10,13,987.64
2016,10,14,10,14,987.64
2016,10,14,10,15,987.13
2016,10,14,10,16,987.13
2016,10,14,10,17,987.13
2016,10,14,10,18,987.13
2016,10,14,10,19,987.13
2016,10,14,10,20,987.13
2016,10,14,10,21,987.13
2016,10,14,10,22,987.13
2016,10,14,10,23,987.13
2016,10,14,10,24,987.13
2016,10,14,10,25,987.13
2016,10,14,10,26,987.13
2016,10,14,10,27,987.13
2016,10,14,10,28,987.13
2016,10,14,10,29,987.13
2016,10,14,10,30,987.13
2016,10,14,10,31,987.13
2016,10,14,10,32,987.13
2016,10,14,10,33,987.13
2016,10,14,10,34,987.13
2016,10,14,10,35,987.13
2016,10,14,10,36,987.13
2016,10,14,10,37,987.13
2016,10,14,10,38,987.13
2016,10,14,10,39,987.13
2016,10,14,10,40,987.13
2016,10,14,10,41,987.13
2016,10,14,10,42,987.13
2016,10,14,10,43,987.13
2016,10,14,10,44,987.13
2016,10,14,10,45,986.83
2016,10,14,10,46,986.83
2016,10,14,10,47,986.83
2016,10,14,10,48,986.83
2016,10,14,10,49,986.83
2016,10,14,10,50,986.83
2016,10,14,10,51,986.83
2016,10,14,10,52,986.83
2016,10,14,10,53,986.83
2016,10,14,10,54,986.83
2016,10,14,10,55,986.83
2016,10,14,10,56,986.83
2016,10,14,10,57,986.83
2016,10,14,10,58,986.83
2016,10,14,10,59,986.83
2016,10,14,11,00,986.42
2016,10,14,11,01,986.42
2016,10,14,11,02,986.42
2016,10,14,11,03,986.42
2016,10,14,11,04,986.42
2016,10,14,11,05,986.42
2016,10,14,11,06,986.42
2016,10,14,11,07,986.42
2016,10,14,11,08,986.42
2016,10,14,11,09,986.42
2016,10,14,11,10,986.42
2016,10,14,11,11,986.42
2016,10,14,11,12,986.42
2016,10,14,11,13,986.42
2016,10,14,11,14,986.42
2016,10,14,11,15,986.29
2016,10,14,11,16,986.29
2016,10,14,11,17,986.29
2016,10,14,11,18,986.29
2016,10,14,11,19,986.29
2016,10,14,11,20,986.29
2016,10,14,11,21,986.29
2016,10,14,11,22,986.29
2016,10,14,11,23,986.29
2016,10,14,11,24,986.29
2016,10,14,11,25,986.29
2016,10,14,11,26,986.29
2016,10,14,11,27,986.29
2016,10,14,11,28,986.29
2016,10,14,11,29,986.29
2016,10,14,11,30,986.22
2016,10,14,11,31,986.22
2016,10,14,11,32,986.22
2016,10,14,11,33,986.22
2016,10,14,11,34,986.22
2016,10,14,11,35,986.22
2016,10,14,11,36,986.22
2016,10,14,11,37,986.22
2016,10,14,11,38,986.22
2016,10,14,11,39,986.22
2016,10,14,11,40,986.22
2016,10,14,11,41,986.22
2016,10,14,11,42,986.22
2016,10,14,11,43,986.22
2016,10,14,11,44,986.22
2016,10,14,11,45,986.32
2016,10,14,11,46,986.32
2016,10,14,11,47,986.32
2016,10,14,11,48,986.32
2016,10,14,11,49,986.32
2016,10,14,11,50,986.32
2016,10,14,11,51,986.32
2016,10,14,11,52,986.32
2016,10,14,11,53,986.32
2016,10,14,11,54,986.32
2016,10,14,11,55,986.32
2016,10,14,11,56,986.32
2016,10,14,11,57,986.32
2016,10,14,11,58,986.32
2016,10,14,11,59,986.32
2016,10,14,12,00,986.02
2016,10,14,12,01,986.02
2016,10,14,12,02,986.02
2016,10,14,12,03,986.02
2016,10,14,12,04,986.02
2016,10,14,12,05,986.02
2016,10,14,12,06,986.02
2016,10,14,12,07,986.02
2016,10,14,12,08,986.02
2016,10,14,12,09,986.02
2016,10,14,12,10,986.02
2016,10,14,12,11,986.02
2016,10,14,12,12,986.02
2016,10,14,12,13,986.02
2016,10,14,12,14,986.02
2016,10,14,12,15,986.02
2016,10,14,12,16,986.02
2016,10,14,12,17,986.02
2016,10,14,12,18,986.02
2016,10,14,12,19,986.02
2016,10,14,12,20,986.02
2016,10,14,12,21,986.02
2016,10,14,12,22,986.02
2016,10,14,12,23,986.02
2016,10,14,12,24,986.02
2016,10,14,12,25,986.02
2016,10,14,12,26,986.02
2016,10,14,12,27,986.02
2016,10,14,12,28,986.02
2016,10,14,12,29,986.02
2016,10,14,12,30,985.74
2016,10,14,12,31,985.74
2016,10,14,12,32,985.74
2016,10,14,12,33,985.74
2016,10,14,12,34,985.74
2016,10,14,12,35,985.74
2016,10,14,12,36,985.74
2016,10,14,12,37,985.74
2016,10,14,12,38,985.74
2016,10,14,12,39,985.74
2016,10,14,12,40,985.74
2016,10,14,12,41,985.74
2016,10,14,12,42,985.74
2016,10,14,12,43,985.74
2016,10,14,12,44,985.74
2016,10,14,12,45,985.68
2016,10,14,12,46,985.68
2016,10,14,12,47,985.68
2016,10,14,12,48,985.68
2016,10,14,12,49,985.68
2016,10,14,12,50,985.68
2016,10,14,12,51,985.68
2016,10,14,12,52,985.68
2016,10,14,12,53,985.68
2016,10,14,12,54,985.68
2016,10,14,12,55,985.68
2016,10,14,12,56,985.68
2016,10,14,12,57,985.68
2016,10,14,12,58,985.68
2016,10,14,12,59,985.68
2016,10,14,13,00,985.74
2016,10,14,13,01,985.74
2016,10,14,13,02,985.74
2016,10,14,13,03,985.74
2016,10,14,13,04,985.74
2016,10,14,13,05,985.74
2016,10,14,13,06,985.74
2016,10,14,13,07,985.74
2016,10,14,13,08,985.74
2016,10,14,13,09,985.74
2016,10,14,13,10,985.74
2016,10,14,13,11,985.74
2016,10,14,13,12,985.74
2016,10,14,13,13,985.74
2016,10,14,13,14,985.74
2016,10,14,13,15,985.34
2016,10,14,13,16,985.34
2016,10,14,13,17,985.34
2016,10,14,13,18,985.34
2016,10,14,13,19,985.34
2016,10,14,13,20,985.34
2016,10,14,13,21,985.34
2016,10,14,13,22,985.34
2016,10,14,13,23,985.34
2016,10,14,13,24,985.34
2016,10,14,13,25,985.34
2016,10,14,13,26,985.34
2016,10,14,13,27,985.34
2016,10,14,13,28,985.34
2016,10,14,13,29,985.34
2016,10,14,13,30,986.05
2016,10,14,13,31,986.08
2016,10,14,13,32,986.08
2016,10,14,13,33,986.08
2016,10,14,13,34,986.08
2016,10,14,13,35,986.08
2016,10,14,13,36,986.08
2016,10,14,13,37,986.08
2016,10,14,13,38,986.08
2016,10,14,13,39,986.08
2016,10,14,13,40,986.08
2016,10,14,13,41,986.08
2016,10,14,13,42,986.08
2016,10,14,13,43,986.08
2016,10,14,13,44,986.08
2016,10,14,13,45,986.93
2016,10,14,13,46,986.93
2016,10,14,13,47,986.93
2016,10,14,13,48,986.93
2016,10,14,13,49,986.93
2016,10,14,13,50,986.93
2016,10,14,13,51,986.93
2016,10,14,13,52,986.93
2016,10,14,13,53,986.93
2016,10,14,13,54,986.93
2016,10,14,13,55,986.93
2016,10,14,13,56,986.93
2016,10,14,13,57,986.93
2016,10,14,13,58,986.93
2016,10,14,13,59,986.93
2016,10,14,14,00,987.23
2016,10,14,14,01,987.23
2016,10,14,14,02,987.23
2016,10,14,14,03,987.23
2016,10,14,14,04,987.23
2016,10,14,14,05,987.23
2016,10,14,14,06,987.23
2016,10,14,14,07,987.23
2016,10,14,14,08,987.23
2016,10,14,14,09,987.23
2016,10,14,14,10,987.23
2016,10,14,14,11,987.23
2016,10,14,14,12,987.23
2016,10,14,14,13,987.23
2016,10,14,14,14,987.23
2016,10,14,14,15,987.91
2016,10,14,14,16,987.91
2016,10,14,14,17,987.91
2016,10,14,14,18,987.91
2016,10,14,14,19,987.91
2016,10,14,14,20,987.91
2016,10,14,14,21,987.91
2016,10,14,14,22,987.91
2016,10,14,14,23,987.91
2016,10,14,14,24,987.91
2016,10,14,14,25,987.91
2016,10,14,14,26,987.91
2016,10,14,14,27,987.91
2016,10,14,14,28,987.91
2016,10,14,14,29,987.91
2016,10,14,14,30,988.45
2016,10,14,14,31,988.45
2016,10,14,14,32,988.45
2016,10,14,14,33,988.45
2016,10,14,14,34,988.45
2016,10,14,14,35,988.45
2016,10,14,14,36,988.45
2016,10,14,14,37,988.45
2016,10,14,14,38,988.45
2016,10,14,14,39,988.45
2016,10,14,14,40,988.45
2016,10,14,14,41,988.45
2016,10,14,14,42,988.45
2016,10,14,14,43,988.45
2016,10,14,14,44,988.45
2016,10,14,14,45,988.93
2016,10,14,14,46,988.93
2016,10,14,14,47,988.93
2016,10,14,14,48,988.93
2016,10,14,14,49,988.93
2016,10,14,14,50,988.93
2016,10,14,14,51,988.93
2016,10,14,14,52,988.93
2016,10,14,14,53,988.93
2016,10,14,14,54,988.93
2016,10,14,14,55,988.93
2016,10,14,14,56,988.93
2016,10,14,14,57,988.93
2016,10,14,14,58,988.93
2016,10,14,14,59,988.93
2016,10,14,15,00,989.47
2016,10,14,15,01,989.47
2016,10,14,15,02,989.47
2016,10,14,15,03,989.47
2016,10,14,15,04,989.47
2016,10,14,15,05,989.47
2016,10,14,15,06,989.47
2016,10,14,15,07,989.47
2016,10,14,15,08,989.47
2016,10,14,15,09,989.47
2016,10,14,15,10,989.47
2016,10,14,15,11,989.47
2016,10,14,15,12,989.47
2016,10,14,15,13,989.47
2016,10,14,15,14,989.47
2016,10,14,15,15,990.01
2016,10,14,15,16,990.01
2016,10,14,15,17,990.01
2016,10,14,15,18,990.01
2016,10,14,15,19,990.01
2016,10,14,15,20,990.01
2016,10,14,15,22,990.01
2016,10,14,15,23,990.01
2016,10,14,15,24,990.01
2016,10,14,15,25,990.01
2016,10,14,15,26,990.01
2016,10,14,15,27,990.01
2016,10,14,15,28,990.01
2016,10,14,15,29,990.01
2016,10,14,15,30,990.52
2016,10,14,15,31,990.52
2016,10,14,15,32,990.52
2016,10,14,15,33,990.52
2016,10,14,15,34,990.52
2016,10,14,15,35,990.52
2016,10,14,15,36,990.52
2016,10,14,15,37,990.52
2016,10,14,15,38,990.52
2016,10,14,15,39,990.52
2016,10,14,15,40,990.52
2016,10,14,15,41,990.52
2016,10,14,15,42,990.52
2016,10,14,15,43,990.52
2016,10,14,15,44,990.52
2016,10,14,15,45,991.06
2016,10,14,15,46,991.06
2016,10,14,15,47,991.06
2016,10,14,15,48,991.06
2016,10,14,15,49,991.06
2016,10,14,15,50,991.06
2016,10,14,15,51,991.06
2016,10,14,15,52,991.06
2016,10,14,15,53,991.06
2016,10,14,15,54,991.06
2016,10,14,15,55,991.06
2016,10,14,15,56,991.06
2016,10,14,15,57,991.06
2016,10,14,15,58,991.06
2016,10,14,15,59,991.06
2016,10,14,16,00,991.53
2016,10,14,16,01,991.53
2016,10,14,16,02,991.53
2016,10,14,16,03,991.53
2016,10,14,16,04,991.53
2016,10,14,16,05,991.53
2016,10,14,16,06,991.53
2016,10,14,16,07,991.53
2016,10,14,16,08,991.53
2016,10,14,16,09,991.53
2016,10,14,16,10,991.53
2016,10,14,16,11,991.53
2016,10,14,16,12,991.53
2016,10,14,16,13,991.53
2016,10,14,16,14,991.53
2016,10,14,16,15,991.94
2016,10,14,16,16,991.94
2016,10,14,16,17,991.94
2016,10,14,16,18,991.94
2016,10,14,16,19,991.94
2016,10,14,16,20,991.94
2016,10,14,16,21,991.94
2016,10,14,16,22,991.94
2016,10,14,16,23,991.94
2016,10,14,16,24,991.94
2016,10,14,16,25,991.94
2016,10,14,16,26,991.94
2016,10,14,16,27,991.94
2016,10,14,16,28,991.94
2016,10,14,16,29,991.94
2016,10,14,16,30,992.58
2016,10,14,16,31,992.58
2016,10,14,16,32,992.58
2016,10,14,16,33,992.58
2016,10,14,16,34,992.58
2016,10,14,16,35,992.58
2016,10,14,16,36,992.58
2016,10,14,16,37,992.58